Location: Coopersdale
(40.3556°N, 78.9372°W)
Time: 04:14:40
(UTC+00:00)

Courier 1B - Pass Details

Date: 30 January 2021
Orbit: 962 x 1209 km, 28.3° (Epoch: 07 March)

Event Time Altitude Azimuth Distance (km) Brightness Sun altitude
Rises 00:46:10 0° 209° (SSW) 3,984 11.1 -25.9°
Reaches altitude 10° 00:50:34 10° 187° (S) 2,973 10.1 -26.7°
Enters shadow 00:53:34 14° 162° (SSE) 2,634 9.6 -27.3°
